Location: Étouvelles
(49.5207°N, 3.5808°E)
Time: 11:41:22
(UTC+00:00)

Cosmos 540 Rocket - Visible Passes

Search period start: 22 September 2023 00:00
Search period end: 02 October 2023 00:00
Orbit: 740 x 750 km, 74.1° (Epoch: 21 September)

Date Brightness Start Highest point End Pass type
(mag) Time Alt. Az. Time Alt. Az. Time Alt. Az.
22 Sep 5.3 21:41:21 10° NNW 21:43:44 24° N 21:43:44 24° N visible
22 Sep 6.2 23:23:03 10° NW 23:23:30 12° NW 23:23:30 12° NW visible
23 Sep 5.3 20:57:46 10° N 21:00:29 21° NNE 21:00:29 21° NNE visible
23 Sep 5.9 22:38:51 10° NNW 22:40:15 19° NNW 22:40:15 19° NNW visible
24 Sep 5.5 20:14:31 10° N 20:17:14 15° NE 20:17:14 15° NE visible
24 Sep 5.4 21:54:54 10° NNW 21:57:01 25° NNW 21:57:01 25° NNW visible
25 Sep 5.1 21:11:07 10° NNW 21:13:47 27° N 21:13:47 27° N visible
25 Sep 6.2 22:52:55 10° NW 22:53:34 13° NW 22:53:34 13° NW visible
26 Sep 5.1 20:27:31 10° N 20:30:35 23° NNE 20:30:35 23° NNE visible
26 Sep 5.7 22:08:40 10° NNW 22:10:21 21° NW 22:10:21 21° NW visible
27 Sep 5.3 19:44:13 10° N 19:47:21 16° NE 19:47:24 16° NE visible
27 Sep 5.1 21:24:41 10° NNW 21:27:10 29° NNW 21:27:10 29° NNW visible
28 Sep 5.6 19:02:03 10° NNE 19:02:46 10° NE 19:03:29 10° NE visible
28 Sep 4.7 20:40:53 10° NNW 20:44:00 32° NNE 20:44:00 32° NNE visible
28 Sep 6.1 22:22:45 10° NW 22:23:47 15° NW 22:23:47 15° NW visible
29 Sep 4.8 19:57:15 10° N 20:00:52 26° NE 20:00:52 26° NE visible
29 Sep 5.5 21:38:28 10° NNW 21:40:38 25° NW 21:40:38 25° NW visible
30 Sep 5.2 19:13:54 10° N 19:17:11 17° NE 19:17:44 17° NE visible
30 Sep 4.7 20:54:27 10° NNW 20:57:31 37° NNW 20:57:31 37° NNW visible
01 Oct 5.5 18:31:23 10° NNE 18:32:38 11° NE 18:33:54 10° NE visible
01 Oct 4.3 20:10:38 10° NNW 20:14:25 39° NNE 20:14:25 39° NNE visible
01 Oct 5.9 21:52:36 10° NW 21:54:12 18° NW 21:54:12 18° NW visible
